COSMOS 1104

导读 | 星芒AI

COSMOS 1104 是苏联于1979年发射的一颗军事侦察卫星,属于“坦普尔”(Tsel) 系列。该卫星主要用于光学成像和电子情报收集,支持苏联的军事监视和战略决策。COSMOS 1104 在近地轨道运行,搭载高分辨率摄像系统,能够对地面目标进行详细观测。其任务周期持续数月,最终在任务结束后再入大气层销毁。该卫星体现了冷战时期苏联在空间侦察技术方面的进展。

基本信息
目录编号:
11378
目录名称:
COSMOS 1104
国际标识:
1979-046A
轨道中心:
EARTH
卫星名称:
COSMOS 1104
卫星全名:
--
卫星状态:
在轨 (已飞行16953 天)
发射日期:
1979-05-31 UTC
国别 :
俄罗斯(独联体) (CIS)
星等 :
--
轨道信息
数据来源 国际轨道数据
星历时间: 2025-10-28T21:07:27+0800
17小时前
查看轨道信息
半长轴: 7356.336km
偏心率: 0.0033704
轨道倾角: 82.947°
近地点辐角 131.274°
升交点赤经 232.345°
平近点角 41.492°
近地点: 953.407km
远地点: 1002.995km
周期: 104.653分钟
每日圈数: 13.759749
详细信息
使用方式:
暂无
2D轨道图
3D轨道图
轨道高度分析图
轨道倾角分析图
轨道综合分析图
查看轨道综合分析图